(144903) = 2003 SY282 = 2004 XD22

Discovered at Socorro on 2004-12-08 by LINEAR.

Orbit

Orbit type: Main Belt

Note: WebGL enabled browser required.

epoch2024-03-31.0
epoch JD2460400.5
perihelion date2023-11-24.68257
perihelion JD2460273.18257
argument of perihelion (°)236.26496
ascending node (°)255.18350
inclination (°)14.04466
eccentricity0.1598098
perihelion distance (AU)2.3343136
Tisserand w.r.t. Jupiter3.3
ΔV w.r.t. Earth (km/sec)10.5
semimajor axis (AU)2.7783156
mean anomaly (°)27.09688
mean daily motion (°/day)0.21282930
aphelion distance (AU)3.222
period (years)4.63
P-vector [x]-0.63791309
P-vector [y]0.76214468
P-vector [z]0.11046439
Q-vector [x]-0.73350223
Q-vector [y]-0.55760942
Q-vector [z]-0.38864665
absolute magnitude15.25
phase slope0.15
uncertainty0
referenceMPEC 2024-F50
observations used893
oppositions18
arc length (days)8923
first opposition used1999
last opposition used2024
residual rms (arc-secs)0.66
perturbers coarse indicatorM-v
perturbers precise indicator003Ek
first observation date used1999-10-14.0
last observation date used2024-03-18.0
computer nameMPCLINUX
JD of orbit computation2456731.627205
perihelion JD uncertainty (days)9.3567E-05
argument of perihelion uncertainty (°)2.8420E-05
ascending node uncertainty (°)2.1255E-05
inclination uncertainty (°)6.0623E-06
eccentricity uncertainty 5.3352E-08
perihelion distance uncertainty (AU)1.5698E-07
Minimum Orbit Intersection Distances (in AU)
for orbit epoch: 2460400.5, reference: E2024-GB3
Mercury2.01894
Venus1.64476
Earth1.3815
Mars0.80892
Jupiter2.04382
Saturn6.52874
Uranus16.0647
Neptune26.9429

Observations

898 total observations over interval: 1999 10 14.26003 – 2024 03 18.913669
These data are available for download (format description).

Date (UT) J2000 RA J2000 Dec Magn Location Ref
1999 10 14.26003 02 52 38.29 +29 49 26.1 19.0   704 – Lincoln Laboratory ETS, New Mexico MPS 178485
1999 10 14.27557 02 52 37.64 +29 49 22.7 19.8   704 – Lincoln Laboratory ETS, New Mexico MPS 178485
1999 10 14.29100 02 52 37.06 +29 49 19.6 19.5   704 – Lincoln Laboratory ETS, New Mexico MPS 178485
1999 10 14.30640 02 52 36.36 +29 49 16.8 19.5   704 – Lincoln Laboratory ETS, New Mexico MPS 178485
2000 01 06.07780 02 13 11.30 +19 10 51.9 19.0   704 – Lincoln Laboratory ETS, New Mexico MPS 178485
2000 01 06.09267 02 13 11.69 +19 10 49.5 19.7   704 – Lincoln Laboratory ETS, New Mexico MPS 178485
2000 01 06.12246 02 13 12.49 +19 10 42.6 19.8   704 – Lincoln Laboratory ETS, New Mexico MPS 178485
2000 01 06.13733 02 13 12.88 +19 10 39.1 19.9   704 – Lincoln Laboratory ETS, New Mexico MPS 178485
2001 02 01.50348 12 00 01.28 -21 29 24.8 20.8   608 – Haleakala-AMOS MPS 178485
2001 02 01.51467 12 00 01.18 -21 29 29.0 19.8   608 – Haleakala-AMOS MPS 178485
2001 02 01.52489 12 00 01.17 -21 29 33.4 20.5   608 – Haleakala-AMOS MPS 178485
2001 04 01.19957 11 24 09.75 -20 02 09.9 18.4 R 699 – Lowell Observatory-LONEOS MPS 178485
2001 04 01.21521 11 24 09.07 -20 02 01.0   699 – Lowell Observatory-LONEOS MPS 178485
2001 04 01.23091 11 24 08.41 -20 01 51.8   699 – Lowell Observatory-LONEOS MPS 178485
2001 04 01.24663 11 24 07.81 -20 01 44.8   699 – Lowell Observatory-LONEOS MPS 178485
2001 04 24.30954 11 15 11.81 -16 21 27.2 20.0   608 – Haleakala-AMOS MPS 178485
2001 04 24.32032 11 15 11.78 -16 21 21.7 20.1   608 – Haleakala-AMOS MPS 178485
2001 04 24.33092 11 15 11.71 -16 21 15.9 20.0   608 – Haleakala-AMOS MPS 178485
2003 09 20.19565 22 37 59.15 +13 30 03.6 19.7   644 – Palomar Mountain/NEAT MPS 87370
2003 09 20.21682 22 37 58.17 +13 29 55.3 19.6   644 – Palomar Mountain/NEAT MPS 87370
2003 09 20.23809 22 37 57.29 +13 29 47.5 19.2   644 – Palomar Mountain/NEAT MPS 87370
2003 09 21.22427 22 37 14.12 +13 23 23.5 19.5   644 – Palomar Mountain/NEAT MPS 87370
2003 09 21.24569 22 37 13.13 +13 23 14.9 19.5   644 – Palomar Mountain/NEAT MPS 87370
2003 09 21.26698 22 37 12.18 +13 23 06.8 19.7   644 – Palomar Mountain/NEAT MPS 87370
2004 12 08.33033 06 00 57.46 +19 42 42.2 19.0   704 – Lincoln Laboratory ETS, New Mexico MPS 121827
2004 12 08.34956 06 00 56.45 +19 42 33.1 19.1   704 – Lincoln Laboratory ETS, New Mexico MPS 121827
2004 12 08.36558 06 00 55.45 +19 42 27.0 19.3   704 – Lincoln Laboratory ETS, New Mexico MPS 121827
2004 12 08.37975 06 00 54.61 +19 42 21.9 19.2   704 – Lincoln Laboratory ETS, New Mexico MPS 121827
2004 12 10.33237 05 59 03.37 +19 28 37.8 18.4   704 – Lincoln Laboratory ETS, New Mexico MPS 121827
2004 12 10.34448 05 59 02.52 +19 28 32.3 18.8   704 – Lincoln Laboratory ETS, New Mexico MPS 121827
2004 12 10.35658 05 59 01.90 +19 28 27.4 18.9   704 – Lincoln Laboratory ETS, New Mexico MPS 121827
2004 12 10.36870 05 59 01.08 +19 28 21.5 18.6   704 – Lincoln Laboratory ETS, New Mexico MPS 121827
2004 12 10.38081 05 59 00.59 +19 28 17.7 19.6   704 – Lincoln Laboratory ETS, New Mexico MPS 121827
2004 12 13.29387 05 56 09.07 +19 07 46.0 18.0   704 – Lincoln Laboratory ETS, New Mexico MPS 121827
2004 12 13.31015 05 56 08.06 +19 07 39.0 18.5   704 – Lincoln Laboratory ETS, New Mexico MPS 121827
2004 12 13.32635 05 56 07.08 +19 07 31.9 18.4   704 – Lincoln Laboratory ETS, New Mexico MPS 121827
2004 12 13.34251 05 56 06.06 +19 07 24.7 18.3   704 – Lincoln Laboratory ETS, New Mexico MPS 121827
2005 01 13.21143 05 28 04.83 +15 53 04.5 19.1   704 – Lincoln Laboratory ETS, New Mexico MPS 124114
2005 01 13.22523 05 28 04.27 +15 52 59.8 19.8   704 – Lincoln Laboratory ETS, New Mexico MPS 124114
2005 01 13.23895 05 28 03.76 +15 52 57.8 20.2   704 – Lincoln Laboratory ETS, New Mexico MPS 124114
2005 01 13.25202 05 28 03.15 +15 52 52.3 20.0   704 – Lincoln Laboratory ETS, New Mexico MPS 124114
2005 01 13.26527 05 28 02.66 +15 52 48.7 19.6   704 – Lincoln Laboratory ETS, New Mexico MPS 124114
2006 04 26.51597 14 47 06.75 -28 34 43.4 18.8 V E12 – Siding Spring Survey MPS 169916
2006 04 26.52953 14 47 06.00 -28 34 37.4 19.2 V E12 – Siding Spring Survey MPS 169916
2006 04 26.54402 14 47 05.20 -28 34 30.9 18.9 V E12 – Siding Spring Survey MPS 169916
2006 04 26.55889 14 47 04.41 -28 34 24.9 18.8 V E12 – Siding Spring Survey MPS 169916
2006 05 22.58039 14 25 42.60 -24 51 19.2 19.0 V E12 – Siding Spring Survey MPS 172031
2006 05 22.59125 14 25 42.13 -24 51 13.3 19.1 V E12 – Siding Spring Survey MPS 172031
2006 05 22.60220 14 25 41.70 -24 51 06.5 19.0 V E12 – Siding Spring Survey MPS 172031
2006 05 22.61313 14 25 41.19 -24 51 01.0 18.8 V E12 – Siding Spring Survey MPS 172031
2007 06 21.31771 20 33 51.69 -05 27 59.6 20.2 V G96 – Mt. Lemmon Survey MPS 211350
2007 06 21.32420 20 33 51.48 -05 27 58.2 20.4 V G96 – Mt. Lemmon Survey MPS 211350
2007 06 21.33069 20 33 51.26 -05 27 57.0 20.3 V G96 – Mt. Lemmon Survey MPS 211350
2007 06 21.33735 20 33 51.08 -05 27 56.0 20.4 V G96 – Mt. Lemmon Survey MPS 211350
2008 09 23.22313 00 54 47.16 +25 37 42.3 19.3 V 703 – Catalina Sky Survey MPS 257583
2008 09 23.23103 00 54 46.87 +25 37 40.5 19.0 V 703 – Catalina Sky Survey MPS 257583
2008 09 23.23902 00 54 46.36 +25 37 39.3 19.6 V 703 – Catalina Sky Survey MPS 257583
2008 09 23.24683 00 54 45.97 +25 37 37.8 19.7 V 703 – Catalina Sky Survey MPS 257583
2008 09 30.29980 00 49 10.09 +25 06 51.2 19.2 V 703 – Catalina Sky Survey MPS 258955
2008 09 30.30528 00 49 09.76 +25 06 49.9 19.3 V 703 – Catalina Sky Survey MPS 258955
2008 09 30.31066 00 49 09.40 +25 06 47.7 19.4 V 703 – Catalina Sky Survey MPS 258955
2008 09 30.31610 00 49 09.12 +25 06 47.5 19.2 V 703 – Catalina Sky Survey MPS 258955
2008 10 03.27314 00 46 41.80 +24 50 25.2 19.4   704 – Lincoln Laboratory ETS, New Mexico MPS 260141
2008 10 03.28530 00 46 41.15 +24 50 20.5 19.5   704 – Lincoln Laboratory ETS, New Mexico MPS 260141
2008 10 03.29751 00 46 40.57 +24 50 16.5 19.8   704 – Lincoln Laboratory ETS, New Mexico MPS 260141
2008 10 03.30970 00 46 39.87 +24 50 11.7 19.9   704 – Lincoln Laboratory ETS, New Mexico MPS 260141
2008 10 03.32189 00 46 39.30 +24 50 07.7 19.3   704 – Lincoln Laboratory ETS, New Mexico MPS 260141
2008 10 10.18433 00 40 53.40 +24 04 59.7 19.2 V G96 – Mt. Lemmon Survey MPS 260141
2008 10 10.18955 00 40 53.14 +24 04 57.5 19.3 V G96 – Mt. Lemmon Survey MPS 260141
2008 10 10.19478 00 40 52.86 +24 04 55.2 19.2 V G96 – Mt. Lemmon Survey MPS 260141
2008 10 10.20001 00 40 52.60 +24 04 53.1 19.3 V G96 – Mt. Lemmon Survey MPS 260141
2008 10 24.28591 00 29 53.91 +22 08 14.5 19.5 V 703 – Catalina Sky Survey MPS 262868
2008 10 24.29765 00 29 53.41 +22 08 07.5 19.3 V 703 – Catalina Sky Survey MPS 262868
2008 10 24.30941 00 29 52.87 +22 08 01.3 19.4 V 703 – Catalina Sky Survey MPS 262868
2008 10 24.32110 00 29 52.40 +22 07 55.4 19.2 V 703 – Catalina Sky Survey MPS 262868
2008 10 28.19711 00 27 18.98 +21 32 18.8 19.4   704 – Lincoln Laboratory ETS, New Mexico MPS 265088
2008 10 28.20878 00 27 18.47 +21 32 12.9 19.7   704 – Lincoln Laboratory ETS, New Mexico MPS 265088
2008 10 28.22040 00 27 18.05 +21 32 06.3 19.8   704 – Lincoln Laboratory ETS, New Mexico MPS 265088
2008 10 28.23191 00 27 17.73 +21 31 58.5 20.0   704 – Lincoln Laboratory ETS, New Mexico MPS 265088
2008 10 28.24338 00 27 17.15 +21 31 53.5 20.2   704 – Lincoln Laboratory ETS, New Mexico MPS 265088
2008 11 08.10722 00 21 44.71 +19 50 54.3 19.7 V 703 – Catalina Sky Survey MPS 265088
2008 11 08.11330 00 21 44.67 +19 50 52.6 18.9 V 703 – Catalina Sky Survey MPS 265088
2008 11 08.11936 00 21 44.49 +19 50 49.2 19.0 V 703 – Catalina Sky Survey MPS 265088
2008 11 08.12550 00 21 44.31 +19 50 45.4 18.8 V 703 – Catalina Sky Survey MPS 265088
2008 11 22.20973 00 18 45.07 +17 50 43.4 20.2   704 – Lincoln Laboratory ETS, New Mexico MPS 267252
2008 11 22.22216 00 18 45.06 +17 50 36.6 20.0   704 – Lincoln Laboratory ETS, New Mexico MPS 267252
2008 11 22.23467 00 18 45.06 +17 50 31.9 19.9   704 – Lincoln Laboratory ETS, New Mexico MPS 267252
2009 11 17.45933 09 24 18.50 +04 05 53.6 19.8 V 703 – Catalina Sky Survey MPS 304498
2009 11 17.46589 09 24 18.86 +04 05 48.2 20.4 V 703 – Catalina Sky Survey MPS 304498
